Year,Month,Day,Hour,Minute,Value (Times are PST for temperature in C)
2014,09,13,08,54,15.90
2014,09,13,08,55,15.90
2014,09,13,08,56,15.90
2014,09,13,08,57,16.00
2014,09,13,08,58,16.00
2014,09,13,08,59,16.00
2014,09,13,09,00,16.00
2014,09,13,09,01,16.00
2014,09,13,09,02,16.00
2014,09,13,09,03,16.00
2014,09,13,09,04,16.10
2014,09,13,09,05,16.10
2014,09,13,09,06,16.10
2014,09,13,09,07,16.10
2014,09,13,09,08,16.10
2014,09,13,09,09,16.10
2014,09,13,09,10,16.10
2014,09,13,09,11,16.10
2014,09,13,09,12,16.10
2014,09,13,09,13,16.10
2014,09,13,09,14,16.10
2014,09,13,09,15,16.10
2014,09,13,09,16,16.20
2014,09,13,09,17,16.20
2014,09,13,09,18,16.20
2014,09,13,09,19,16.10
2014,09,13,09,20,16.00
2014,09,13,09,21,15.90
2014,09,13,09,22,15.80
2014,09,13,09,23,15.70
2014,09,13,09,24,15.60
2014,09,13,09,25,15.50
2014,09,13,09,26,15.40
2014,09,13,09,27,15.40
2014,09,13,09,28,15.30
2014,09,13,09,29,15.30
2014,09,13,09,30,15.20
2014,09,13,09,31,15.20
2014,09,13,09,32,15.20
2014,09,13,09,33,15.30
2014,09,13,09,34,15.30
2014,09,13,09,35,15.40
2014,09,13,09,36,15.50
2014,09,13,09,37,15.50
2014,09,13,09,38,15.50
2014,09,13,09,39,15.50
2014,09,13,09,40,15.50
2014,09,13,09,41,15.40
2014,09,13,09,42,15.40
2014,09,13,09,43,15.30
2014,09,13,09,44,15.30
2014,09,13,09,45,15.30
2014,09,13,09,46,15.30
2014,09,13,09,47,15.30
2014,09,13,09,48,15.30
2014,09,13,09,49,15.30
2014,09,13,09,50,15.40
2014,09,13,09,51,15.40
2014,09,13,09,52,15.40
2014,09,13,09,53,15.50
2014,09,13,09,54,15.50
2014,09,13,09,55,15.50
2014,09,13,09,56,15.50
2014,09,13,09,57,15.50
2014,09,13,09,58,15.60
2014,09,13,09,59,15.60
2014,09,13,10,00,15.60
2014,09,13,10,01,15.70
2014,09,13,10,02,15.70
2014,09,13,10,03,15.70
2014,09,13,10,04,15.80
2014,09,13,10,05,15.80
2014,09,13,10,06,15.70
2014,09,13,10,07,15.70
2014,09,13,10,08,15.60
2014,09,13,10,09,15.40
2014,09,13,10,10,15.30
2014,09,13,10,11,15.20
2014,09,13,10,12,15.20
2014,09,13,10,13,15.20
2014,09,13,10,14,15.20
2014,09,13,10,15,15.20
2014,09,13,10,16,15.20
2014,09,13,10,17,15.20
2014,09,13,10,18,15.20
2014,09,13,10,19,15.20
2014,09,13,10,20,15.30
2014,09,13,10,21,15.30
2014,09,13,10,22,15.30
2014,09,13,10,23,15.30
2014,09,13,10,24,15.40
2014,09,13,10,25,15.40
2014,09,13,10,26,15.40
2014,09,13,10,27,15.50
2014,09,13,10,28,15.60
2014,09,13,10,29,15.70
2014,09,13,10,30,15.80
2014,09,13,10,31,16.00
2014,09,13,10,32,16.10
2014,09,13,10,33,16.20
2014,09,13,10,34,16.40
2014,09,13,10,35,16.50
2014,09,13,10,36,16.70
2014,09,13,10,37,16.80
2014,09,13,10,38,17.00
2014,09,13,10,39,17.10
2014,09,13,10,40,17.20
2014,09,13,10,41,17.30
2014,09,13,10,42,17.40
2014,09,13,10,43,17.50
2014,09,13,10,44,17.60
2014,09,13,10,45,17.70
2014,09,13,10,46,17.70
2014,09,13,10,47,17.90
2014,09,13,10,48,18.10
2014,09,13,10,49,18.40
2014,09,13,10,50,18.80
2014,09,13,10,51,19.20
2014,09,13,10,52,19.60
2014,09,13,10,53,20.00
2014,09,13,10,54,20.30
2014,09,13,10,55,20.60
2014,09,13,10,56,20.80
2014,09,13,10,57,21.00
2014,09,13,10,58,21.20
2014,09,13,10,59,21.40
2014,09,13,11,00,21.50
2014,09,13,11,01,21.60
2014,09,13,11,02,21.70
2014,09,13,11,03,21.60
2014,09,13,11,04,21.70
2014,09,13,11,05,21.70
2014,09,13,11,06,21.70
2014,09,13,11,07,21.60
2014,09,13,11,08,21.70
2014,09,13,11,09,21.60
2014,09,13,11,10,21.60
2014,09,13,11,11,21.60
2014,09,13,11,12,21.50
2014,09,13,11,13,21.50
2014,09,13,11,14,21.50
2014,09,13,11,15,21.60
2014,09,13,11,16,21.60
2014,09,13,11,17,21.70
2014,09,13,11,18,21.70
2014,09,13,11,19,21.70
2014,09,13,11,20,21.70
2014,09,13,11,21,21.70
2014,09,13,11,22,21.70
2014,09,13,11,23,21.80
2014,09,13,11,24,21.80
2014,09,13,11,25,21.80
2014,09,13,11,26,21.80
2014,09,13,11,27,21.90
2014,09,13,11,28,21.90
2014,09,13,11,29,22.00
2014,09,13,11,30,22.00
2014,09,13,11,31,22.10
2014,09,13,11,32,22.10
2014,09,13,11,33,22.00
2014,09,13,11,34,21.90
2014,09,13,11,35,21.80
2014,09,13,11,36,21.80
2014,09,13,11,37,21.70
2014,09,13,11,38,21.70
2014,09,13,11,39,21.70
2014,09,13,11,40,21.70
2014,09,13,11,41,21.70
2014,09,13,11,42,21.70
2014,09,13,11,43,21.70
2014,09,13,11,44,21.80
2014,09,13,11,45,21.80
2014,09,13,11,46,21.80
2014,09,13,11,47,21.80
2014,09,13,11,48,21.80
2014,09,13,11,49,21.80
2014,09,13,11,50,21.80
2014,09,13,11,51,21.80
2014,09,13,11,52,21.80
2014,09,13,11,53,21.80
2014,09,13,11,54,21.80
2014,09,13,11,55,21.80
2014,09,13,11,56,21.80
2014,09,13,11,57,21.80
2014,09,13,11,58,21.80
2014,09,13,11,59,21.80
2014,09,13,12,00,21.80
2014,09,13,12,01,21.90
2014,09,13,12,02,21.90
2014,09,13,12,03,21.90
2014,09,13,12,04,22.00
2014,09,13,12,05,22.00
2014,09,13,12,06,22.00
2014,09,13,12,07,22.10
2014,09,13,12,08,22.10
2014,09,13,12,09,22.10
2014,09,13,12,10,22.00
2014,09,13,12,11,22.00
2014,09,13,12,12,22.00
2014,09,13,12,13,22.00
2014,09,13,12,14,22.00
2014,09,13,12,15,22.00
2014,09,13,12,16,22.00
2014,09,13,12,17,22.00
2014,09,13,12,18,22.00
2014,09,13,12,19,22.10
2014,09,13,12,20,22.20
2014,09,13,12,21,22.20
2014,09,13,12,22,22.20
2014,09,13,12,23,22.20
2014,09,13,12,24,22.20
2014,09,13,12,25,22.20
2014,09,13,12,26,22.20
2014,09,13,12,27,22.30
2014,09,13,12,28,22.30
2014,09,13,12,29,22.30
2014,09,13,12,30,22.30
2014,09,13,12,31,22.30
2014,09,13,12,32,22.40
2014,09,13,12,33,22.40
2014,09,13,12,34,22.40
2014,09,13,12,35,22.40
2014,09,13,12,36,22.40
2014,09,13,12,37,22.40
2014,09,13,12,38,22.40
2014,09,13,12,39,22.40
2014,09,13,12,40,22.50
2014,09,13,12,41,22.50
2014,09,13,12,42,22.50
2014,09,13,12,43,22.50
2014,09,13,12,44,22.50
2014,09,13,12,45,22.50
2014,09,13,12,46,22.50
2014,09,13,12,47,22.50
2014,09,13,12,48,22.50
2014,09,13,12,49,22.60
2014,09,13,12,50,22.60
2014,09,13,12,51,22.60
2014,09,13,12,52,22.60
2014,09,13,12,53,22.70
2014,09,13,12,54,22.70
2014,09,13,12,55,22.80
2014,09,13,12,56,22.80
2014,09,13,12,57,22.80
2014,09,13,12,58,22.80
2014,09,13,12,59,22.80
2014,09,13,13,00,22.80
2014,09,13,13,01,22.80
2014,09,13,13,02,22.80
2014,09,13,13,03,22.80
2014,09,13,13,04,22.80
2014,09,13,13,05,22.70
2014,09,13,13,06,22.70
2014,09,13,13,07,22.70
2014,09,13,13,08,22.70
2014,09,13,13,09,22.70
2014,09,13,13,10,22.70
2014,09,13,13,11,22.70
2014,09,13,13,12,22.70
2014,09,13,13,13,22.70
2014,09,13,13,14,22.70
2014,09,13,13,15,22.80
2014,09,13,13,16,22.80
2014,09,13,13,17,22.80
2014,09,13,13,18,22.90
2014,09,13,13,19,22.90
2014,09,13,13,20,22.90
2014,09,13,13,21,22.90
2014,09,13,13,22,22.90
2014,09,13,13,23,22.90
2014,09,13,13,24,22.90
2014,09,13,13,25,22.90
2014,09,13,13,26,23.00
2014,09,13,13,27,23.10
2014,09,13,13,28,23.20
2014,09,13,13,29,23.30
2014,09,13,13,30,23.40
2014,09,13,13,31,23.40
2014,09,13,13,32,23.50
2014,09,13,13,33,23.50
2014,09,13,13,34,23.50
2014,09,13,13,35,23.50
2014,09,13,13,36,23.50
2014,09,13,13,37,23.50
2014,09,13,13,38,23.60
2014,09,13,13,39,23.60
2014,09,13,13,40,23.60
2014,09,13,13,41,23.70
2014,09,13,13,42,23.70
2014,09,13,13,43,23.70
2014,09,13,13,44,23.70
2014,09,13,13,45,23.70
2014,09,13,13,46,23.70
2014,09,13,13,47,23.70
2014,09,13,13,48,23.70
2014,09,13,13,49,23.70
2014,09,13,13,50,23.60
2014,09,13,13,51,23.60
2014,09,13,13,52,23.60
2014,09,13,13,53,23.60
2014,09,13,13,54,23.60
2014,09,13,13,55,23.60
2014,09,13,13,56,23.60
2014,09,13,13,57,23.60
2014,09,13,13,58,23.60
2014,09,13,13,59,23.70
2014,09,13,14,00,23.70
2014,09,13,14,01,23.60
2014,09,13,14,02,23.60
2014,09,13,14,03,23.60
2014,09,13,14,04,23.60
2014,09,13,14,05,23.60
2014,09,13,14,06,23.60
2014,09,13,14,07,23.60
2014,09,13,14,08,23.70
2014,09,13,14,09,23.80
2014,09,13,14,10,23.90
2014,09,13,14,11,23.90
2014,09,13,14,12,24.00
2014,09,13,14,13,24.10
2014,09,13,14,14,24.20
2014,09,13,14,15,24.20
2014,09,13,14,16,24.20
2014,09,13,14,17,24.10
2014,09,13,14,18,24.10
2014,09,13,14,19,24.10
2014,09,13,14,20,24.10
2014,09,13,14,21,24.10
2014,09,13,14,22,24.10
2014,09,13,14,23,24.10
2014,09,13,14,24,24.10
2014,09,13,14,25,24.20
2014,09,13,14,26,24.30
2014,09,13,14,27,24.30
2014,09,13,14,28,24.30
2014,09,13,14,29,24.30
2014,09,13,14,30,24.30
2014,09,13,14,31,24.30
2014,09,13,14,32,24.30
2014,09,13,14,33,24.30
2014,09,13,14,34,24.30
2014,09,13,14,35,24.20
2014,09,13,14,36,24.20
2014,09,13,14,37,24.10
2014,09,13,14,38,24.10
2014,09,13,14,39,24.10
2014,09,13,14,40,24.10
2014,09,13,14,41,24.10
2014,09,13,14,42,24.10
2014,09,13,14,43,24.20
2014,09,13,14,44,24.30
2014,09,13,14,45,24.30
2014,09,13,14,46,24.30
2014,09,13,14,47,24.30
2014,09,13,14,48,24.30
2014,09,13,14,49,24.30
2014,09,13,14,50,24.30
2014,09,13,14,51,24.30
2014,09,13,14,52,24.30
2014,09,13,14,53,24.30
2014,09,13,14,54,24.30
2014,09,13,14,55,24.40
2014,09,13,14,56,24.30
2014,09,13,14,57,24.40
2014,09,13,14,58,24.40
2014,09,13,14,59,24.50
2014,09,13,15,00,24.50
2014,09,13,15,01,24.50
2014,09,13,15,02,24.60
2014,09,13,15,03,24.60
2014,09,13,15,04,24.70
2014,09,13,15,05,24.70
2014,09,13,15,06,24.80
2014,09,13,15,07,24.80
2014,09,13,15,08,24.80
2014,09,13,15,09,24.70
2014,09,13,15,10,24.70
2014,09,13,15,11,24.70
2014,09,13,15,12,24.70
2014,09,13,15,13,24.70
2014,09,13,15,14,24.70
2014,09,13,15,15,24.70
2014,09,13,15,16,24.70
2014,09,13,15,17,24.70
2014,09,13,15,18,24.70
2014,09,13,15,19,24.70
2014,09,13,15,20,24.70
2014,09,13,15,21,24.70
2014,09,13,15,22,24.70
2014,09,13,15,23,24.80
2014,09,13,15,24,24.80
2014,09,13,15,25,24.90
2014,09,13,15,26,24.90
2014,09,13,15,27,24.90
2014,09,13,15,28,24.90
2014,09,13,15,29,24.90
2014,09,13,15,30,24.90
2014,09,13,15,31,24.90
2014,09,13,15,32,24.90
2014,09,13,15,33,24.90
2014,09,13,15,34,24.90
2014,09,13,15,35,25.00
2014,09,13,15,36,25.00
2014,09,13,15,37,25.00
2014,09,13,15,38,25.00
2014,09,13,15,39,25.10
2014,09,13,15,40,25.10
2014,09,13,15,41,25.10
2014,09,13,15,42,25.10
2014,09,13,15,43,25.20
2014,09,13,15,44,25.20
2014,09,13,15,45,25.10
2014,09,13,15,46,25.20
2014,09,13,15,47,25.20
2014,09,13,15,48,25.20
2014,09,13,15,49,25.20
2014,09,13,15,50,25.20
2014,09,13,15,51,25.20
2014,09,13,15,52,25.20
2014,09,13,15,53,25.20
2014,09,13,15,54,25.20
2014,09,13,15,55,25.20
2014,09,13,15,56,25.20
2014,09,13,15,57,25.20
2014,09,13,15,58,25.20
2014,09,13,15,59,25.30
2014,09,13,16,00,25.30
2014,09,13,16,01,25.30
2014,09,13,16,02,25.40
2014,09,13,16,03,25.40
2014,09,13,16,04,25.50
2014,09,13,16,05,25.50
2014,09,13,16,06,25.50
2014,09,13,16,07,25.20
2014,09,13,16,08,24.70
2014,09,13,16,09,24.20
2014,09,13,16,10,23.80
2014,09,13,16,11,23.40
2014,09,13,16,12,23.10
2014,09,13,16,13,22.90
2014,09,13,16,14,22.80
2014,09,13,16,15,22.70
2014,09,13,16,16,22.60
2014,09,13,16,17,22.50
2014,09,13,16,18,22.40
2014,09,13,16,19,22.40
2014,09,13,16,20,22.40
2014,09,13,16,21,22.40
2014,09,13,16,22,22.40
2014,09,13,16,23,22.50
2014,09,13,16,24,22.60
2014,09,13,16,25,22.60
2014,09,13,16,26,22.40
2014,09,13,16,27,22.30
2014,09,13,16,28,22.10
2014,09,13,16,29,21.80
2014,09,13,16,30,21.50
2014,09,13,16,31,21.30
2014,09,13,16,32,21.00
2014,09,13,16,33,20.80
2014,09,13,16,34,20.60
2014,09,13,16,35,20.50
2014,09,13,16,36,20.30
2014,09,13,16,37,20.10
2014,09,13,16,38,19.90
2014,09,13,16,39,19.90
2014,09,13,16,40,19.80
2014,09,13,16,41,19.70
2014,09,13,16,42,19.60
2014,09,13,16,43,19.40
2014,09,13,16,44,19.30
2014,09,13,16,45,19.20
2014,09,13,16,46,19.10
2014,09,13,16,47,19.00
2014,09,13,16,48,19.00
2014,09,13,16,49,19.00
2014,09,13,16,50,19.00
2014,09,13,16,51,18.90
2014,09,13,16,52,18.90
2014,09,13,16,53,18.90
2014,09,13,16,54,18.90
2014,09,13,16,55,18.90
2014,09,13,16,56,18.90
2014,09,13,16,57,18.80
2014,09,13,16,58,18.70
2014,09,13,16,59,18.70
2014,09,13,17,00,18.60
2014,09,13,17,01,18.60
2014,09,13,17,02,18.60
2014,09,13,17,03,18.60
2014,09,13,17,04,18.60
2014,09,13,17,05,18.60
2014,09,13,17,06,18.60
2014,09,13,17,07,18.60
2014,09,13,17,08,18.70
2014,09,13,17,09,18.70
2014,09,13,17,10,18.80
2014,09,13,17,11,18.80
2014,09,13,17,12,18.90
2014,09,13,17,13,19.00
2014,09,13,17,14,19.00
2014,09,13,17,15,19.10
2014,09,13,17,16,19.10
2014,09,13,17,17,19.10
2014,09,13,17,18,19.20
2014,09,13,17,19,19.20
2014,09,13,17,20,19.30
2014,09,13,17,21,19.40
2014,09,13,17,22,19.40
2014,09,13,17,23,19.50
2014,09,13,17,24,19.60
2014,09,13,17,25,19.70
2014,09,13,17,26,19.70
2014,09,13,17,27,19.80
2014,09,13,17,28,19.80
2014,09,13,17,29,19.80
2014,09,13,17,30,19.90
2014,09,13,17,31,19.90
2014,09,13,17,32,19.80
2014,09,13,17,33,19.70
2014,09,13,17,34,19.60
2014,09,13,17,35,19.60
2014,09,13,17,36,19.60
2014,09,13,17,37,19.50
2014,09,13,17,38,19.60
2014,09,13,17,39,19.60
2014,09,13,17,40,19.60
2014,09,13,17,41,19.70
2014,09,13,17,42,19.70
2014,09,13,17,43,19.80
2014,09,13,17,44,19.80
2014,09,13,17,45,19.90
2014,09,13,17,46,19.90
2014,09,13,17,47,19.90
2014,09,13,17,48,20.00
2014,09,13,17,49,20.00
2014,09,13,17,50,20.00
2014,09,13,17,51,20.10
2014,09,13,17,52,20.00
2014,09,13,17,53,20.00
2014,09,13,17,54,20.00
2014,09,13,17,55,19.90
2014,09,13,17,56,19.90
2014,09,13,17,57,19.80
2014,09,13,17,58,19.80
2014,09,13,17,59,19.80
2014,09,13,18,00,19.70
2014,09,13,18,01,19.70
2014,09,13,18,02,19.70
2014,09,13,18,03,19.70
2014,09,13,18,04,19.70
2014,09,13,18,05,19.70
2014,09,13,18,06,19.70
2014,09,13,18,07,19.70
2014,09,13,18,08,19.60
2014,09,13,18,09,19.60
2014,09,13,18,10,19.50
2014,09,13,18,11,19.40
2014,09,13,18,12,19.40
2014,09,13,18,13,19.30
2014,09,13,18,14,19.20
2014,09,13,18,15,19.20
2014,09,13,18,16,19.10
2014,09,13,18,17,19.10
2014,09,13,18,18,19.10
2014,09,13,18,19,19.10
2014,09,13,18,20,19.10
2014,09,13,18,21,19.10
2014,09,13,18,22,19.10
2014,09,13,18,23,19.00
2014,09,13,18,24,19.00
2014,09,13,18,25,18.90
2014,09,13,18,26,18.90
2014,09,13,18,27,18.90
2014,09,13,18,28,18.90
2014,09,13,18,29,18.90
2014,09,13,18,30,18.90
2014,09,13,18,31,18.90
2014,09,13,18,32,18.90
2014,09,13,18,33,18.90
2014,09,13,18,34,18.80
2014,09,13,18,35,18.80
2014,09,13,18,36,18.80
2014,09,13,18,37,18.80
2014,09,13,18,38,18.90
2014,09,13,18,39,18.80
2014,09,13,18,40,18.80
2014,09,13,18,41,18.80
2014,09,13,18,42,18.80
2014,09,13,18,43,18.80
2014,09,13,18,44,18.80
2014,09,13,18,45,18.80
2014,09,13,18,46,18.80
2014,09,13,18,47,18.80
2014,09,13,18,48,18.80
2014,09,13,18,49,18.80
2014,09,13,18,50,18.90
2014,09,13,18,51,18.90
2014,09,13,18,52,19.00
2014,09,13,18,53,19.00
2014,09,13,18,54,19.00
2014,09,13,18,55,19.00
2014,09,13,18,56,19.00
2014,09,13,18,57,19.00
2014,09,13,18,58,18.90
2014,09,13,18,59,18.90
2014,09,13,19,00,18.90
2014,09,13,19,01,18.90
2014,09,13,19,02,18.90
2014,09,13,19,03,19.00
2014,09,13,19,04,19.00
2014,09,13,19,05,19.00
2014,09,13,19,06,19.00
2014,09,13,19,07,18.90
2014,09,13,19,08,18.90
2014,09,13,19,09,18.80
2014,09,13,19,10,18.80
2014,09,13,19,11,18.70
2014,09,13,19,12,18.70
2014,09,13,19,13,18.70
2014,09,13,19,14,18.70
2014,09,13,19,15,18.70
2014,09,13,19,16,18.70
2014,09,13,19,17,18.70
2014,09,13,19,18,18.70
2014,09,13,19,19,18.70
2014,09,13,19,20,18.70
